Year,Month,Day,Hour,Minute,Value (Times are PST for temperature in C)
2022,03,24,00,00,6.60
2022,03,24,00,01,6.60
2022,03,24,00,02,6.60
2022,03,24,00,03,6.60
2022,03,24,00,04,6.60
2022,03,24,00,05,6.60
2022,03,24,00,06,6.60
2022,03,24,00,07,6.60
2022,03,24,00,08,6.60
2022,03,24,00,09,6.60
2022,03,24,00,10,6.50
2022,03,24,00,11,6.40
2022,03,24,00,12,6.40
2022,03,24,00,13,6.40
2022,03,24,00,14,6.40
2022,03,24,00,15,6.40
2022,03,24,00,16,6.40
2022,03,24,00,17,6.40
2022,03,24,00,18,6.40
2022,03,24,00,19,6.40
2022,03,24,00,20,6.40
2022,03,24,00,21,6.40
2022,03,24,00,22,6.40
2022,03,24,00,23,6.40
2022,03,24,00,24,6.40
2022,03,24,00,25,6.40
2022,03,24,00,26,6.40
2022,03,24,00,27,6.40
2022,03,24,00,28,6.40
2022,03,24,00,29,6.40
2022,03,24,00,30,6.40
2022,03,24,00,31,6.40
2022,03,24,00,32,6.40
2022,03,24,00,33,6.40
2022,03,24,00,34,6.40
2022,03,24,00,35,6.40
2022,03,24,00,36,6.40
2022,03,24,00,37,6.40
2022,03,24,00,38,6.50
2022,03,24,00,39,6.60
2022,03,24,00,40,6.60
2022,03,24,00,41,6.60
2022,03,24,00,42,6.60
2022,03,24,00,43,6.60
2022,03,24,00,44,6.60
2022,03,24,00,45,6.60
2022,03,24,00,46,6.60
2022,03,24,00,47,6.60
2022,03,24,00,48,6.60
2022,03,24,00,49,6.60
2022,03,24,00,50,6.60
2022,03,24,00,51,6.60
2022,03,24,00,52,6.60
2022,03,24,00,53,6.60
2022,03,24,00,54,6.60
2022,03,24,00,55,6.60
2022,03,24,00,56,6.60
2022,03,24,00,57,6.60
2022,03,24,00,58,6.60
2022,03,24,00,59,6.60
2022,03,24,01,00,6.60
2022,03,24,01,01,6.50
2022,03,24,01,02,6.40
2022,03,24,01,03,6.40
2022,03,24,01,04,6.40
2022,03,24,01,05,6.40
2022,03,24,01,06,6.40
2022,03,24,01,07,6.40
2022,03,24,01,08,6.40
2022,03,24,01,09,6.40
2022,03,24,01,10,6.40
2022,03,24,01,11,6.40
2022,03,24,01,12,6.40
2022,03,24,01,13,6.40
2022,03,24,01,14,6.30
2022,03,24,01,15,6.30
2022,03,24,01,16,6.30
2022,03,24,01,17,6.30
2022,03,24,01,18,6.30
2022,03,24,01,19,6.30
2022,03,24,01,20,6.30
2022,03,24,01,21,6.30
2022,03,24,01,22,6.30
2022,03,24,01,23,6.30
2022,03,24,01,24,6.20
2022,03,24,01,25,6.20
2022,03,24,01,26,6.20
2022,03,24,01,27,6.20
2022,03,24,01,28,6.20
2022,03,24,01,29,6.20
2022,03,24,01,30,6.20
2022,03,24,01,31,6.20
2022,03,24,01,32,6.20
2022,03,24,01,33,6.20
2022,03,24,01,34,6.20
2022,03,24,01,35,6.20
2022,03,24,01,36,6.20
2022,03,24,01,37,6.20
2022,03,24,01,38,6.20
2022,03,24,01,39,6.20
2022,03,24,01,40,6.10
2022,03,24,01,41,6.10
2022,03,24,01,42,6.10
2022,03,24,01,43,6.10
2022,03,24,01,44,6.10
2022,03,24,01,45,6.10
2022,03,24,01,46,6.10
2022,03,24,01,47,6.00
2022,03,24,01,48,6.00
2022,03,24,01,49,6.00
2022,03,24,01,50,6.00
2022,03,24,01,51,6.00
2022,03,24,01,52,6.00
2022,03,24,01,53,6.00
2022,03,24,01,54,6.00
2022,03,24,01,55,6.00
2022,03,24,01,56,5.90
2022,03,24,01,57,5.90
2022,03,24,01,58,5.90
2022,03,24,01,59,5.90
2022,03,24,02,00,5.90
2022,03,24,02,01,5.90
2022,03,24,02,02,5.80
2022,03,24,02,03,5.80
2022,03,24,02,04,5.80
2022,03,24,02,05,5.80
2022,03,24,02,06,5.70
2022,03,24,02,07,5.70
2022,03,24,02,08,5.70
2022,03,24,02,09,5.70
2022,03,24,02,10,5.70
2022,03,24,02,11,5.70
2022,03,24,02,12,5.70
2022,03,24,02,13,5.60
2022,03,24,02,14,5.60
2022,03,24,02,15,5.60
2022,03,24,02,16,5.50
2022,03,24,02,17,5.50
2022,03,24,02,18,5.50
2022,03,24,02,19,5.40
2022,03,24,02,20,5.40
2022,03,24,02,21,5.40
2022,03,24,02,22,5.30
2022,03,24,02,23,5.30
2022,03,24,02,24,5.30
2022,03,24,02,25,5.30
2022,03,24,02,26,5.30
2022,03,24,02,27,5.20
2022,03,24,02,28,5.20
2022,03,24,02,29,5.20
2022,03,24,02,30,5.20
2022,03,24,02,31,5.10
2022,03,24,02,32,5.10
2022,03,24,02,33,5.10
2022,03,24,02,34,5.10
2022,03,24,02,35,5.10
2022,03,24,02,36,5.00
2022,03,24,02,37,4.90
2022,03,24,02,38,4.90
2022,03,24,02,39,4.80
2022,03,24,02,40,4.80
2022,03,24,02,41,4.70
2022,03,24,02,42,4.60
2022,03,24,02,43,4.60
2022,03,24,02,44,4.60
2022,03,24,02,45,4.60
2022,03,24,02,46,4.60
2022,03,24,02,47,4.50
2022,03,24,02,48,4.50
2022,03,24,02,49,4.50
2022,03,24,02,50,4.50
2022,03,24,02,51,4.50
2022,03,24,02,52,4.40
2022,03,24,02,53,4.40
2022,03,24,02,54,4.40
2022,03,24,02,55,4.30
2022,03,24,02,56,4.30
2022,03,24,02,57,4.30
2022,03,24,02,58,4.20
2022,03,24,02,59,4.20
2022,03,24,03,00,4.20
2022,03,24,03,01,4.20
2022,03,24,03,02,4.10
2022,03,24,03,03,4.10
2022,03,24,03,04,4.00
2022,03,24,03,05,4.00
2022,03,24,03,06,4.00
2022,03,24,03,07,3.90
2022,03,24,03,08,3.90
2022,03,24,03,09,3.80
2022,03,24,03,10,3.80
2022,03,24,03,11,3.80
2022,03,24,03,12,3.80
2022,03,24,03,13,3.70
2022,03,24,03,14,3.70
2022,03,24,03,15,3.60
2022,03,24,03,16,3.60
2022,03,24,03,17,3.60
2022,03,24,03,18,3.60
2022,03,24,03,19,3.50
2022,03,24,03,20,3.50
2022,03,24,03,21,3.50
2022,03,24,03,22,3.50
2022,03,24,03,23,3.50
2022,03,24,03,24,3.50
2022,03,24,03,25,3.40
2022,03,24,03,26,3.40
2022,03,24,03,27,3.40
2022,03,24,03,28,3.40
2022,03,24,03,29,3.40
2022,03,24,03,30,3.30
2022,03,24,03,31,3.30
2022,03,24,03,32,3.30
2022,03,24,03,33,3.30
2022,03,24,03,34,3.30
2022,03,24,03,35,3.20
2022,03,24,03,36,3.20
2022,03,24,03,37,3.20
2022,03,24,03,38,3.20
2022,03,24,03,39,3.10
2022,03,24,03,40,3.10
2022,03,24,03,41,3.10
2022,03,24,03,42,3.10
2022,03,24,03,43,3.10
2022,03,24,03,44,3.00
2022,03,24,03,45,2.90
2022,03,24,03,46,2.90
2022,03,24,03,47,2.90
2022,03,24,03,48,2.90
2022,03,24,03,49,2.90
2022,03,24,03,50,2.90
2022,03,24,03,51,2.80
2022,03,24,03,52,2.80
2022,03,24,03,53,2.80
2022,03,24,03,54,2.80
2022,03,24,03,55,2.70
2022,03,24,03,56,2.70
2022,03,24,03,57,2.70
2022,03,24,03,58,2.70
2022,03,24,03,59,2.70
2022,03,24,04,00,2.70
2022,03,24,04,01,2.60
2022,03,24,04,02,2.60
2022,03,24,04,03,2.60
2022,03,24,04,04,2.50
2022,03,24,04,05,2.50
2022,03,24,04,06,2.50
2022,03,24,04,07,2.50
2022,03,24,04,08,2.40
2022,03,24,04,09,2.40
2022,03,24,04,10,2.40
2022,03,24,04,11,2.40
2022,03,24,04,12,2.40
2022,03,24,04,13,2.30
2022,03,24,04,14,2.30
2022,03,24,04,15,2.30
2022,03,24,04,16,2.30
2022,03,24,04,17,2.30
2022,03,24,04,18,2.30
2022,03,24,04,19,2.30
2022,03,24,04,20,2.30
2022,03,24,04,21,2.30
2022,03,24,04,22,2.20
2022,03,24,04,23,2.20
2022,03,24,04,24,2.20
2022,03,24,04,25,2.20
2022,03,24,04,26,2.20
2022,03,24,04,27,2.20
2022,03,24,04,28,2.20
2022,03,24,04,29,2.20
2022,03,24,04,30,2.20
2022,03,24,04,31,2.20
2022,03,24,04,32,2.20
2022,03,24,04,33,2.20
2022,03,24,04,34,2.10
2022,03,24,04,35,2.10
2022,03,24,04,36,2.10
2022,03,24,04,37,2.10
2022,03,24,04,38,2.10
2022,03,24,04,39,2.10
2022,03,24,04,40,2.10
2022,03,24,04,41,2.00
2022,03,24,04,42,2.00
2022,03,24,04,43,2.00
2022,03,24,04,44,2.00
2022,03,24,04,45,2.00
2022,03,24,04,46,2.00
2022,03,24,04,47,1.90
2022,03,24,04,48,1.90
2022,03,24,04,49,1.90
2022,03,24,04,50,1.90
2022,03,24,04,51,1.90
2022,03,24,04,52,1.90
2022,03,24,04,53,1.90
2022,03,24,04,54,1.80
2022,03,24,04,55,1.80
2022,03,24,04,56,1.80
2022,03,24,04,57,1.80
2022,03,24,04,58,1.80
2022,03,24,04,59,1.80
2022,03,24,05,00,1.80
2022,03,24,05,01,1.80
2022,03,24,05,02,1.80
2022,03,24,05,03,1.80
2022,03,24,05,04,1.80
2022,03,24,05,05,1.80
2022,03,24,05,06,1.80
2022,03,24,05,07,1.80
2022,03,24,05,08,1.80
2022,03,24,05,09,1.80
2022,03,24,05,10,1.80
2022,03,24,05,11,1.80
2022,03,24,05,12,1.80
2022,03,24,05,13,1.80
2022,03,24,05,14,1.80
2022,03,24,05,15,1.80
2022,03,24,05,16,1.80
2022,03,24,05,17,1.80
2022,03,24,05,18,1.80
2022,03,24,05,19,1.70
2022,03,24,05,20,1.70
2022,03,24,05,21,1.70
2022,03,24,05,22,1.70
2022,03,24,05,23,1.70
2022,03,24,05,24,1.70
2022,03,24,05,25,1.70
2022,03,24,05,26,1.70
2022,03,24,05,27,1.70
2022,03,24,05,28,1.70
2022,03,24,05,29,1.70
2022,03,24,05,30,1.70
2022,03,24,05,31,1.70
2022,03,24,05,32,1.70
2022,03,24,05,33,1.70
2022,03,24,05,34,1.70
2022,03,24,05,35,1.60
2022,03,24,05,36,1.60
2022,03,24,05,37,1.60
2022,03,24,05,38,1.60
2022,03,24,05,39,1.60
2022,03,24,05,40,1.60
2022,03,24,05,41,1.60
2022,03,24,05,42,1.60
2022,03,24,05,43,1.60
2022,03,24,05,44,1.60
2022,03,24,05,45,1.60
2022,03,24,05,46,1.60
2022,03,24,05,47,1.60
2022,03,24,05,48,1.60
2022,03,24,05,49,1.60
2022,03,24,05,50,1.60
2022,03,24,05,51,1.60
2022,03,24,05,52,1.60
2022,03,24,05,53,1.60
2022,03,24,05,54,1.60
2022,03,24,05,55,1.60
2022,03,24,05,56,1.50
2022,03,24,05,57,1.50
2022,03,24,05,58,1.50
2022,03,24,05,59,1.50
2022,03,24,06,00,1.50
2022,03,24,06,01,1.50
2022,03,24,06,02,1.40
2022,03,24,06,03,1.40
2022,03,24,06,04,1.40
2022,03,24,06,05,1.40
2022,03,24,06,06,1.40
2022,03,24,06,07,1.40
2022,03,24,06,08,1.30
2022,03,24,06,09,1.30
2022,03,24,06,10,1.30
2022,03,24,06,11,1.30
2022,03,24,06,12,1.30
2022,03,24,06,13,1.30
2022,03,24,06,14,1.30
2022,03,24,06,15,1.30
2022,03,24,06,16,1.30
2022,03,24,06,17,1.30
2022,03,24,06,18,1.30
2022,03,24,06,19,1.30
2022,03,24,06,20,1.30
2022,03,24,06,21,1.30
2022,03,24,06,22,1.20
2022,03,24,06,23,1.20
2022,03,24,06,24,1.20
2022,03,24,06,25,1.20
2022,03,24,06,26,1.20
2022,03,24,06,27,1.20
2022,03,24,06,28,1.20
2022,03,24,06,29,1.20
2022,03,24,06,30,1.20
2022,03,24,06,31,1.20
2022,03,24,06,32,1.20
2022,03,24,06,33,1.20
2022,03,24,06,34,1.20
2022,03,24,06,35,1.20
2022,03,24,06,36,1.20
2022,03,24,06,37,1.10
2022,03,24,06,38,1.10
2022,03,24,06,39,1.10
2022,03,24,06,40,1.10
2022,03,24,06,41,1.10
2022,03,24,06,42,1.10
2022,03,24,06,43,1.10
2022,03,24,06,44,1.10
2022,03,24,06,45,1.10
2022,03,24,06,46,1.10
2022,03,24,06,47,1.00
2022,03,24,06,48,1.00
2022,03,24,06,49,1.00
2022,03,24,06,50,1.00
2022,03,24,06,51,1.00
2022,03,24,06,52,1.00
2022,03,24,06,53,1.00
2022,03,24,06,54,1.00
2022,03,24,06,55,0.90
2022,03,24,06,56,0.90
2022,03,24,06,57,0.90
2022,03,24,06,58,0.90
2022,03,24,06,59,0.90
2022,03,24,07,00,0.90
2022,03,24,07,01,0.90
2022,03,24,07,02,0.90
2022,03,24,07,03,0.90
2022,03,24,07,04,0.90
2022,03,24,07,05,0.90
2022,03,24,07,06,0.90
2022,03,24,07,07,0.90
2022,03,24,07,08,0.90
2022,03,24,07,09,0.90
2022,03,24,07,10,0.90
2022,03,24,07,11,0.90
2022,03,24,07,12,0.90
2022,03,24,07,13,0.90
2022,03,24,07,14,0.90
2022,03,24,07,15,0.90
2022,03,24,07,16,0.80
2022,03,24,07,17,0.80
2022,03,24,07,18,0.80
2022,03,24,07,19,0.80
2022,03,24,07,20,0.80
2022,03,24,07,21,0.80
2022,03,24,07,22,0.80
2022,03,24,07,23,0.80
2022,03,24,07,24,0.90
2022,03,24,07,25,0.90
2022,03,24,07,26,0.90
2022,03,24,07,27,1.00
2022,03,24,07,28,1.00
2022,03,24,07,29,1.00
2022,03,24,07,30,1.10
2022,03,24,07,31,1.10
2022,03,24,07,32,1.10
2022,03,24,07,33,1.10
2022,03,24,07,34,1.10
2022,03,24,07,35,1.10
2022,03,24,07,36,1.10
2022,03,24,07,37,1.20
2022,03,24,07,38,1.20
2022,03,24,07,39,1.20
2022,03,24,07,40,1.20
2022,03,24,07,41,1.30
2022,03,24,07,42,1.30
2022,03,24,07,43,1.30
2022,03,24,07,44,1.30
2022,03,24,07,45,1.30
2022,03,24,07,46,1.30
2022,03,24,07,47,1.40
2022,03,24,07,48,1.40
2022,03,24,07,49,1.40
2022,03,24,07,50,1.40
2022,03,24,07,51,1.40
2022,03,24,07,52,1.40
2022,03,24,07,53,1.40
2022,03,24,07,54,1.40
2022,03,24,07,55,1.40
2022,03,24,07,56,1.40
2022,03,24,07,57,1.40
2022,03,24,07,58,1.40
2022,03,24,07,59,1.40
2022,03,24,08,00,1.40
2022,03,24,08,01,1.40
2022,03,24,08,02,1.50
2022,03,24,08,03,1.50
2022,03,24,08,04,1.50
2022,03,24,08,05,1.50
2022,03,24,08,06,1.60
2022,03,24,08,07,1.60
2022,03,24,08,08,1.60
2022,03,24,08,09,1.60
2022,03,24,08,10,1.70
2022,03,24,08,11,1.70
2022,03,24,08,12,1.80
2022,03,24,08,13,1.80
2022,03,24,08,14,1.80
2022,03,24,08,15,1.90
2022,03,24,08,16,1.90
2022,03,24,08,17,1.90
2022,03,24,08,18,2.00
2022,03,24,08,19,2.00
2022,03,24,08,20,2.10
2022,03,24,08,21,2.20
2022,03,24,08,22,2.20
2022,03,24,08,23,2.20
2022,03,24,08,24,2.20
2022,03,24,08,25,2.20
2022,03,24,08,26,2.30
2022,03,24,08,27,2.30
2022,03,24,08,28,2.30
2022,03,24,08,29,2.30
2022,03,24,08,30,2.30
2022,03,24,08,31,2.40
2022,03,24,08,32,2.40
2022,03,24,08,33,2.40
2022,03,24,08,34,2.40
2022,03,24,08,35,2.50
2022,03,24,08,36,2.50
2022,03,24,08,37,2.50
2022,03,24,08,38,2.60
2022,03,24,08,39,2.60
2022,03,24,08,40,2.60
2022,03,24,08,41,2.70
2022,03,24,08,42,2.70
2022,03,24,08,43,2.80
2022,03,24,08,44,2.90
2022,03,24,08,45,2.90
2022,03,24,08,46,3.00
2022,03,24,08,47,3.10
2022,03,24,08,48,3.10
2022,03,24,08,49,3.20
2022,03,24,08,50,3.30
2022,03,24,08,51,3.30
2022,03,24,08,52,3.40
2022,03,24,08,53,3.50
2022,03,24,08,54,3.50
2022,03,24,08,55,3.60
2022,03,24,08,56,3.70
2022,03,24,08,57,3.70
2022,03,24,08,58,3.80
2022,03,24,08,59,3.80
2022,03,24,09,00,3.80
2022,03,24,09,01,3.80
2022,03,24,09,02,3.80
2022,03,24,09,03,4.10
2022,03,24,09,04,4.10
2022,03,24,09,05,4.20
2022,03,24,09,06,4.20
2022,03,24,09,07,4.30
2022,03,24,09,08,4.40
2022,03,24,09,09,4.50
2022,03,24,09,10,4.50
2022,03,24,09,11,4.60
2022,03,24,09,12,4.60
2022,03,24,09,13,4.60
2022,03,24,09,14,4.70
2022,03,24,09,15,4.70
2022,03,24,09,16,4.80
2022,03,24,09,17,4.80
2022,03,24,09,18,4.80
2022,03,24,09,19,4.90
2022,03,24,09,20,4.90
2022,03,24,09,21,5.00
2022,03,24,09,22,5.10
2022,03,24,09,23,5.10
2022,03,24,09,24,5.10
2022,03,24,09,25,5.20
2022,03,24,09,26,5.30
2022,03,24,09,27,5.30
2022,03,24,09,28,5.40
2022,03,24,09,29,5.50
2022,03,24,09,30,5.50
2022,03,24,09,31,5.60
2022,03,24,09,32,5.70
2022,03,24,09,33,5.70
2022,03,24,09,34,5.70
2022,03,24,09,35,5.80
2022,03,24,09,36,5.90
2022,03,24,09,37,5.90
2022,03,24,09,38,6.00
2022,03,24,09,39,6.00
2022,03,24,09,40,6.00
2022,03,24,09,41,6.00
2022,03,24,09,42,6.00
2022,03,24,09,43,6.10
2022,03,24,09,44,6.10
2022,03,24,09,45,6.10
2022,03,24,09,46,6.10
2022,03,24,09,47,6.10
2022,03,24,09,48,6.10
2022,03,24,09,49,6.10
2022,03,24,09,50,6.20
2022,03,24,09,51,6.20
2022,03,24,09,52,6.20
2022,03,24,09,53,6.20
2022,03,24,09,54,6.20
2022,03,24,09,55,6.20
2022,03,24,09,56,6.20
2022,03,24,09,57,6.20
2022,03,24,09,58,6.20
2022,03,24,09,59,6.20
2022,03,24,10,00,6.30
2022,03,24,10,01,6.30
2022,03,24,10,02,6.30
2022,03,24,10,03,6.30
2022,03,24,10,04,6.40
2022,03,24,10,05,6.40
2022,03,24,10,06,6.40
2022,03,24,10,07,6.40
2022,03,24,10,08,6.40
2022,03,24,10,09,6.50
2022,03,24,10,10,6.60
2022,03,24,10,11,6.60
2022,03,24,10,12,6.60
2022,03,24,10,13,6.70
2022,03,24,10,14,6.70
2022,03,24,10,15,6.80
2022,03,24,10,16,6.80
2022,03,24,10,17,6.80
2022,03,24,10,18,6.80
2022,03,24,10,19,6.80
2022,03,24,10,20,6.80
2022,03,24,10,21,6.80
2022,03,24,10,22,6.90
2022,03,24,10,23,6.90
2022,03,24,10,24,6.90
2022,03,24,10,25,7.00
2022,03,24,10,26,7.00
2022,03,24,10,27,7.00
2022,03,24,10,28,7.10
2022,03,24,10,29,7.10
2022,03,24,10,30,7.10
2022,03,24,10,31,7.10
2022,03,24,10,32,7.10
2022,03,24,10,33,7.20
2022,03,24,10,34,7.20
2022,03,24,10,35,7.30
2022,03,24,10,36,7.30
2022,03,24,10,37,7.30
2022,03,24,10,38,7.30
2022,03,24,10,39,7.30
2022,03,24,10,40,7.30
2022,03,24,10,41,7.30
2022,03,24,10,42,7.30
2022,03,24,10,43,7.30
2022,03,24,10,44,7.30
2022,03,24,10,45,7.30
2022,03,24,10,46,7.30
2022,03,24,10,47,7.30
2022,03,24,10,48,7.30
2022,03,24,10,49,7.40
2022,03,24,10,50,7.40
2022,03,24,10,51,7.50
2022,03,24,10,52,7.50
2022,03,24,10,53,7.50
2022,03,24,10,54,7.50
2022,03,24,10,55,7.60
2022,03,24,10,56,7.60
2022,03,24,10,57,7.60
2022,03,24,10,58,7.70
2022,03,24,10,59,7.70
2022,03,24,11,00,7.70
2022,03,24,11,01,7.70
2022,03,24,11,02,7.80
2022,03,24,11,03,7.80
2022,03,24,11,04,7.80
2022,03,24,11,05,7.80
2022,03,24,11,06,7.80
2022,03,24,11,07,7.80
2022,03,24,11,08,7.80
2022,03,24,11,09,7.80
2022,03,24,11,10,7.80
2022,03,24,11,11,7.80
2022,03,24,11,12,7.80
2022,03,24,11,13,7.80
2022,03,24,11,14,7.90
2022,03,24,11,15,7.90
2022,03,24,11,16,7.90
2022,03,24,11,17,7.90
2022,03,24,11,18,7.90
2022,03,24,11,19,7.90
2022,03,24,11,20,7.90
2022,03,24,11,21,7.90
2022,03,24,11,22,8.00
2022,03,24,11,23,7.90
2022,03,24,11,24,7.90
2022,03,24,11,25,7.90
2022,03,24,11,26,7.90
2022,03,24,11,27,7.90
2022,03,24,11,28,7.90
2022,03,24,11,29,7.90
2022,03,24,11,30,8.00
2022,03,24,11,31,8.00
2022,03,24,11,32,8.00
2022,03,24,11,33,8.00
2022,03,24,11,34,8.10
2022,03,24,11,35,8.10
2022,03,24,11,36,8.10
2022,03,24,11,37,8.10
2022,03,24,11,38,8.10
2022,03,24,11,39,8.10
2022,03,24,11,40,8.10
2022,03,24,11,41,8.10
2022,03,24,11,42,8.10
2022,03,24,11,43,8.20
2022,03,24,11,44,8.20
2022,03,24,11,45,8.20
2022,03,24,11,46,8.20
2022,03,24,11,47,8.20
2022,03,24,11,48,8.30
2022,03,24,11,49,8.30
2022,03,24,11,50,8.30
2022,03,24,11,51,8.30
2022,03,24,11,52,8.30
2022,03,24,11,53,8.40
2022,03,24,11,54,8.40
2022,03,24,11,55,8.40
2022,03,24,11,56,8.40
2022,03,24,11,57,8.40
2022,03,24,11,58,8.40
2022,03,24,11,59,8.40
2022,03,24,12,00,8.40
2022,03,24,12,01,8.40
2022,03,24,12,02,8.40
2022,03,24,12,03,8.40
2022,03,24,12,04,8.40
2022,03,24,12,05,8.40
2022,03,24,12,06,8.30
2022,03,24,12,07,8.30
2022,03,24,12,08,8.30
2022,03,24,12,09,8.30
2022,03,24,12,10,8.30
2022,03,24,12,11,8.40
2022,03,24,12,12,8.40
2022,03,24,12,13,8.40
2022,03,24,12,14,8.40
2022,03,24,12,15,8.50
2022,03,24,12,16,8.50
2022,03,24,12,17,8.50
2022,03,24,12,18,8.50
2022,03,24,12,19,8.50
2022,03,24,12,20,8.50
2022,03,24,12,21,8.50
2022,03,24,12,22,8.60
2022,03,24,12,23,8.60
2022,03,24,12,24,8.60
2022,03,24,12,25,8.70
2022,03,24,12,26,8.70
2022,03,24,12,27,8.70
2022,03,24,12,28,8.70
2022,03,24,12,29,8.70
2022,03,24,12,30,8.80
2022,03,24,12,31,8.80
2022,03,24,12,32,8.90
2022,03,24,12,33,8.90
2022,03,24,12,34,9.00
2022,03,24,12,35,9.00
2022,03,24,12,36,9.10
2022,03,24,12,37,9.10
2022,03,24,12,38,9.20
2022,03,24,12,39,9.20
2022,03,24,12,40,9.20
2022,03,24,12,41,9.20
2022,03,24,12,42,9.20
2022,03,24,12,43,9.30
2022,03,24,12,44,9.30
2022,03,24,12,45,9.30
2022,03,24,12,46,9.30
2022,03,24,12,47,9.40
2022,03,24,12,48,9.40
2022,03,24,12,49,9.40
2022,03,24,12,50,9.40
2022,03,24,12,51,9.50
2022,03,24,12,52,9.50
2022,03,24,12,53,9.60
2022,03,24,12,54,9.60
2022,03,24,12,55,9.50
2022,03,24,12,56,9.50
2022,03,24,12,57,9.50
2022,03,24,12,58,9.50
2022,03,24,12,59,9.50
2022,03,24,13,00,9.50
2022,03,24,13,01,9.50
2022,03,24,13,02,9.50
2022,03,24,13,03,9.50
2022,03,24,13,04,9.60
2022,03,24,13,05,9.60
2022,03,24,13,06,9.60
2022,03,24,13,07,9.60
2022,03,24,13,08,9.50
2022,03,24,13,09,9.50
2022,03,24,13,10,9.50
2022,03,24,13,11,9.50
2022,03,24,13,12,9.50
2022,03,24,13,13,9.50
2022,03,24,13,14,9.60
2022,03,24,13,15,9.60
2022,03,24,13,16,9.60
2022,03,24,13,17,9.60
2022,03,24,13,18,9.60
2022,03,24,13,19,9.60
2022,03,24,13,20,9.60
2022,03,24,13,21,9.60
2022,03,24,13,22,9.70
2022,03,24,13,23,9.70
2022,03,24,13,24,9.70
2022,03,24,13,25,9.70
2022,03,24,13,26,9.70
2022,03,24,13,27,9.70
2022,03,24,13,28,9.70
2022,03,24,13,29,9.70
2022,03,24,13,30,9.80
2022,03,24,13,31,9.80
2022,03,24,13,32,9.80
2022,03,24,13,33,9.80
2022,03,24,13,34,9.90
2022,03,24,13,35,9.90
2022,03,24,13,36,9.90
2022,03,24,13,37,9.90
2022,03,24,13,38,10.00
2022,03,24,13,39,10.10
2022,03,24,13,40,10.10
2022,03,24,13,41,10.20
2022,03,24,13,42,10.20
2022,03,24,13,43,10.20
2022,03,24,13,44,10.30
2022,03,24,13,45,10.30
2022,03,24,13,46,10.40
2022,03,24,13,47,10.40
2022,03,24,13,48,10.40
2022,03,24,13,49,10.30
2022,03,24,13,50,10.20
2022,03,24,13,51,10.20
2022,03,24,13,52,10.20
2022,03,24,13,53,10.20
2022,03,24,13,54,10.20
2022,03,24,13,55,10.10
2022,03,24,13,56,10.10
2022,03,24,13,57,10.10
2022,03,24,13,58,10.10
2022,03,24,13,59,10.10
2022,03,24,14,00,10.10
2022,03,24,14,01,10.10
2022,03,24,14,02,10.20
2022,03,24,14,03,10.20
2022,03,24,14,04,10.30
2022,03,24,14,05,10.40
2022,03,24,14,06,10.40
2022,03,24,14,07,10.40
2022,03,24,14,08,10.40
2022,03,24,14,09,10.40
2022,03,24,14,10,10.40
2022,03,24,14,11,10.40
2022,03,24,14,12,10.50
2022,03,24,14,13,10.40
2022,03,24,14,14,10.40
2022,03,24,14,15,10.40
2022,03,24,14,16,10.50
2022,03,24,14,17,10.60
2022,03,24,14,18,10.60
2022,03,24,14,19,10.60
2022,03,24,14,20,10.60
2022,03,24,14,21,10.60
2022,03,24,14,22,10.60
2022,03,24,14,23,10.60
2022,03,24,14,24,10.60
2022,03,24,14,25,10.50
2022,03,24,14,26,10.40
2022,03,24,14,27,10.40
2022,03,24,14,28,10.40
2022,03,24,14,29,10.30
2022,03,24,14,30,10.10
2022,03,24,14,31,10.10
2022,03,24,14,32,10.10
2022,03,24,14,33,10.10
2022,03,24,14,34,10.20
2022,03,24,14,35,10.20
2022,03,24,14,36,10.10
2022,03,24,14,37,10.10
2022,03,24,14,38,10.10
2022,03,24,14,39,10.20
2022,03,24,14,40,10.20
2022,03,24,14,41,10.20
2022,03,24,14,42,10.20
2022,03,24,14,43,10.20
2022,03,24,14,44,10.20
2022,03,24,14,45,10.10
2022,03,24,14,46,10.10
2022,03,24,14,47,10.10
2022,03,24,14,48,10.10
2022,03,24,14,49,10.10
2022,03,24,14,50,10.10
2022,03,24,14,51,10.10
2022,03,24,14,52,10.10
2022,03,24,14,53,10.10
2022,03,24,14,54,10.10
2022,03,24,14,55,10.10
2022,03,24,14,56,10.10
2022,03,24,14,57,10.10
2022,03,24,14,58,10.10
2022,03,24,14,59,10.20
2022,03,24,15,00,10.20
2022,03,24,15,01,10.20
2022,03,24,15,02,10.20
2022,03,24,15,03,10.30
2022,03,24,15,04,10.20
2022,03,24,15,05,10.20
2022,03,24,15,06,10.20
2022,03,24,15,07,10.10
2022,03,24,15,08,10.20
2022,03,24,15,09,10.10
2022,03,24,15,10,10.10
2022,03,24,15,11,10.20
2022,03,24,15,12,10.20
2022,03,24,15,13,10.30
2022,03,24,15,14,10.30
2022,03,24,15,15,10.40
2022,03,24,15,16,10.50
2022,03,24,15,17,10.60
2022,03,24,15,18,10.70
2022,03,24,15,19,10.70
2022,03,24,15,20,10.80
2022,03,24,15,21,10.80
2022,03,24,15,22,10.80
2022,03,24,15,23,10.80
2022,03,24,15,24,10.80
2022,03,24,15,25,10.70
2022,03,24,15,26,10.70
2022,03,24,15,27,10.80
2022,03,24,15,28,10.80
2022,03,24,15,29,10.80
2022,03,24,15,30,10.90
2022,03,24,15,31,10.90
2022,03,24,15,32,10.90
2022,03,24,15,33,10.80
2022,03,24,15,34,10.80
2022,03,24,15,35,10.80
2022,03,24,15,36,10.80
2022,03,24,15,37,10.80
2022,03,24,15,38,10.80
2022,03,24,15,39,10.80
2022,03,24,15,40,10.80
2022,03,24,15,41,10.80
2022,03,24,15,42,10.80
2022,03,24,15,43,10.80
2022,03,24,15,44,10.80
2022,03,24,15,45,10.80
2022,03,24,15,46,10.80
2022,03,24,15,47,10.80
2022,03,24,15,48,10.80
2022,03,24,15,49,10.80
2022,03,24,15,50,10.80
2022,03,24,15,51,10.90
2022,03,24,15,52,11.00
2022,03,24,15,53,11.10
2022,03,24,15,54,11.20
2022,03,24,15,55,11.30
2022,03,24,15,56,11.40
2022,03,24,15,57,11.40
2022,03,24,15,58,11.40
2022,03,24,15,59,11.40
2022,03,24,16,00,11.40
2022,03,24,16,01,11.40
2022,03,24,16,02,11.50
2022,03,24,16,03,11.60
2022,03,24,16,04,11.60
2022,03,24,16,05,11.60
2022,03,24,16,06,11.60
2022,03,24,16,07,11.60
2022,03,24,16,08,11.60
2022,03,24,16,09,11.70
2022,03,24,16,10,11.70
2022,03,24,16,11,11.80
2022,03,24,16,12,11.80
2022,03,24,16,13,11.80
2022,03,24,16,14,11.80
2022,03,24,16,15,11.90
2022,03,24,16,16,12.00
2022,03,24,16,17,12.00
2022,03,24,16,18,12.10
2022,03,24,16,19,12.10
2022,03,24,16,20,12.20
2022,03,24,16,21,12.30
2022,03,24,16,22,12.30
2022,03,24,16,23,12.30
2022,03,24,16,24,12.30
2022,03,24,16,25,12.30
2022,03,24,16,26,12.40
2022,03,24,16,27,12.50
2022,03,24,16,28,12.50
2022,03,24,16,29,12.50
2022,03,24,16,30,12.50
2022,03,24,16,31,12.50
2022,03,24,16,32,12.60
2022,03,24,16,33,12.60
2022,03,24,16,34,12.60
2022,03,24,16,35,12.70
2022,03,24,16,36,12.70
2022,03,24,16,37,12.80
2022,03,24,16,38,12.70
2022,03,24,16,39,12.70
2022,03,24,16,40,12.60
2022,03,24,16,41,12.60
2022,03,24,16,42,12.40
2022,03,24,16,43,12.30
2022,03,24,16,44,12.10
2022,03,24,16,45,12.00
2022,03,24,16,46,11.90
2022,03,24,16,47,11.80
2022,03,24,16,48,11.80
2022,03,24,16,49,11.80
2022,03,24,16,50,11.80
2022,03,24,16,51,11.80
2022,03,24,16,52,11.70
2022,03,24,16,53,11.70
2022,03,24,16,54,11.80
2022,03,24,16,55,11.80
2022,03,24,16,56,11.80
2022,03,24,16,57,11.90
2022,03,24,16,58,11.90
2022,03,24,16,59,11.90
2022,03,24,17,00,11.90
2022,03,24,17,01,11.80
2022,03,24,17,02,11.80
2022,03,24,17,03,11.90
2022,03,24,17,04,11.90
2022,03,24,17,05,11.90
2022,03,24,17,06,11.90
2022,03,24,17,07,11.90
2022,03,24,17,08,11.90
2022,03,24,17,09,11.90
2022,03,24,17,10,11.90
2022,03,24,17,11,12.00
2022,03,24,17,12,12.10
2022,03,24,17,13,12.10
2022,03,24,17,14,12.20
2022,03,24,17,15,12.30
2022,03,24,17,16,12.30
2022,03,24,17,17,12.30
2022,03,24,17,18,12.40
2022,03,24,17,19,12.40
2022,03,24,17,20,12.40
2022,03,24,17,21,12.40
2022,03,24,17,22,12.40
2022,03,24,17,23,12.40
2022,03,24,17,24,12.40
2022,03,24,17,25,12.40
2022,03,24,17,26,12.40
2022,03,24,17,27,12.40
2022,03,24,17,28,12.40
2022,03,24,17,29,12.40
2022,03,24,17,30,12.40
2022,03,24,17,31,12.40
2022,03,24,17,32,12.40
2022,03,24,17,33,12.40
2022,03,24,17,34,12.40
2022,03,24,17,35,12.40
2022,03,24,17,36,12.40
2022,03,24,17,37,12.40
2022,03,24,17,38,12.40
2022,03,24,17,39,12.40
2022,03,24,17,40,12.40
2022,03,24,17,41,12.30
2022,03,24,17,42,12.40
2022,03,24,17,43,12.40
2022,03,24,17,44,12.40
2022,03,24,17,45,12.40
2022,03,24,17,46,12.40
2022,03,24,17,47,12.40
2022,03,24,17,48,12.40
2022,03,24,17,49,12.40
2022,03,24,17,50,12.40
2022,03,24,17,51,12.30
2022,03,24,17,52,12.30
2022,03,24,17,53,12.30
2022,03,24,17,54,12.30
2022,03,24,17,55,12.20